Starlink 2420

operational
NORAD ID: 47831 Int'l Des: 2021-018 Owner: SPXS Country: US Constellation: starlink
LEOCIRCULARSTARLINK_TYPE

About Starlink 2420

Description loading...

Live Position

Loading 3D Globe...

Upcoming Passes

Altitude History

Altitude vs Time

uPlot chart will show altitude changes over time

Two-Line Element Set

1 47831U 21018AW 25340.32075442 .00005179 00000-0 36622-3 0 9990
2 47831 53.0555 295.7677 0001272 80.1571 279.9562 15.06407696262784
Epoch: Dec 6, 2025 • Age: 22 hours

Current Status

Altitude 549.0 km
Velocity 7.59 km/s
Sub-Earth Point -5.89°S, 121.55°E
Launch Date Mar 11, 2021
Age 4.7 years
Type internet

Technical Details

Classification Payload
Mass 260.00 kg
Dry Mass 248.00 kg
Total Mass 260.00 kg
Length 0.20 m
Diameter 2.80 m
Span 9.00 m
Shape Box + pan
Manufacturer SPXS
Bus Type Starlink
Phase Status In Orbit
Owner/State SPXS/US

Large Constellations

Loading constellations...